TimeMST,TemperatureF,Dew PointF,Humidity,Sea Level PressureIn,VisibilityMPH,Wind Direction,Wind SpeedMPH,Gust SpeedMPH,PrecipitationIn,Events,Conditions,WindDirDegrees,DateUTC
12:53 AM,3.0,-0.9,84,29.58,10.0,SW,10.4,-,N/A,,Clear,230,2013-01-11 07:53:00
1:53 AM,6.1,1.0,80,29.55,10.0,NW,9.2,-,N/A,,Partly Cloudy,310,2013-01-11 08:53:00
2:53 AM,-5.1,-5.1,100,29.62,10.0,West,4.6,-,N/A,,Clear,280,2013-01-11 09:53:00
3:53 AM,5.0,1.9,87,29.58,10.0,West,10.4,-,N/A,,Overcast,270,2013-01-11 10:53:00
4:00 AM,8.6,3.2,79,29.54,2.5,West,13.8,-,0.00,Snow,Light Snow,270,2013-01-11 11:00:00
4:09 AM,8.6,5.0,85,29.55,1.2,West,17.3,-,0.00,Snow,Light Snow,270,2013-01-11 11:09:00
4:22 AM,8.6,5.0,85,29.54,0.8,West,17.3,-,0.00,Snow,Light Snow,260,2013-01-11 11:22:00
4:53 AM,9.0,5.0,84,29.58,1.0,West,17.3,-,0.00,Snow,Light Snow,270,2013-01-11 11:53:00
5:02 AM,8.6,5.0,85,29.56,0.8,West,19.6,-,0.00,Snow,Light Snow,280,2013-01-11 12:02:00
5:08 AM,8.6,5.0,85,29.56,1.0,West,18.4,-,0.00,Snow,Light Snow,280,2013-01-11 12:08:00
5:33 AM,8.6,3.2,79,29.57,1.2,West,18.4,-,0.00,Snow,Light Snow,280,2013-01-11 12:33:00
5:53 AM,8.1,3.9,83,29.61,1.8,WNW,15.0,-,0.00,Snow,Light Snow,290,2013-01-11 12:53:00
6:18 AM,8.6,3.2,79,29.60,2.5,West,15.0,-,0.00,Snow,Light Snow,270,2013-01-11 13:18:00
6:28 AM,6.8,1.4,79,29.61,5.0,West,11.5,-,0.00,Snow,Light Snow,270,2013-01-11 13:28:00
6:53 AM,7.0,-0.0,73,29.66,10.0,WNW,10.4,-,0.00,,Overcast,300,2013-01-11 13:53:00
7:35 AM,6.8,1.4,79,29.64,1.2,WNW,9.2,-,0.00,Snow,Light Snow,290,2013-01-11 14:35:00
7:53 AM,7.0,1.9,80,29.72,1.2,WNW,10.4,-,0.00,Snow,Light Snow,290,2013-01-11 14:53:00
7:57 AM,6.8,1.4,79,29.65,3.0,WNW,12.7,-,0.00,Snow,Light Snow,290,2013-01-11 14:57:00
8:15 AM,6.8,-0.4,72,29.67,1.8,WNW,15.0,20.7,0.00,Snow,Light Snow,300,2013-01-11 15:15:00
8:25 AM,6.8,-0.4,72,29.67,3.0,WNW,15.0,-,0.00,Snow,Light Snow,290,2013-01-11 15:25:00
8:43 AM,6.8,1.4,79,29.69,1.8,WNW,15.0,-,0.00,Snow,Light Snow,300,2013-01-11 15:43:00
8:53 AM,7.0,1.9,80,29.77,0.5,NW,10.4,-,0.00,Snow,Snow,310,2013-01-11 15:53:00
9:05 AM,6.8,1.4,79,29.69,1.5,NW,9.2,-,0.00,Snow,Light Snow,320,2013-01-11 16:05:00
9:14 AM,6.8,1.4,79,29.70,3.0,NW,6.9,-,0.00,Snow,Light Snow,310,2013-01-11 16:14:00
9:29 AM,8.6,1.4,73,29.70,6.0,WNW,8.1,-,0.00,,Haze,300,2013-01-11 16:29:00
9:46 AM,8.6,1.4,73,29.71,10.0,WNW,10.4,-,0.00,,Overcast,290,2013-01-11 16:46:00
9:53 AM,9.0,1.0,70,29.80,10.0,WNW,9.2,-,0.00,,Overcast,300,2013-01-11 16:53:00
10:53 AM,10.0,-0.0,64,29.82,10.0,WNW,13.8,-,0.00,,Scattered Clouds,290,2013-01-11 17:53:00
11:53 AM,10.9,-0.9,59,29.83,10.0,WNW,15.0,20.7,N/A,,Partly Cloudy,290,2013-01-11 18:53:00
1:53 PM,12.9,-2.0,51,29.85,10.0,West,10.4,-,N/A,,Partly Cloudy,280,2013-01-11 20:53:00
2:53 PM,12.9,-2.0,51,29.94,10.0,WNW,5.8,17.3,N/A,,Clear,290,2013-01-11 21:53:00
3:53 PM,12.0,-2.9,51,29.89,10.0,NW,13.8,-,N/A,,Clear,310,2013-01-11 22:53:00
4:53 PM,7.0,-6.0,55,29.91,10.0,NW,6.9,-,N/A,,Clear,320,2013-01-11 23:53:00
5:53 PM,-0.9,-9.0,69,29.97,10.0,NNW,6.9,-,N/A,,Clear,330,2013-01-12 00:53:00
6:53 PM,-7.1,-11.9,79,30.04,10.0,Calm,Calm,-,N/A,,Partly Cloudy,0,2013-01-12 01:53:00
7:53 PM,-11.0,-15.0,83,30.07,10.0,West,6.9,-,N/A,,Scattered Clouds,260,2013-01-12 02:53:00
8:38 PM,-9.4,-13.0,84,29.80,2.5,WSW,8.1,-,0.00,Snow,Light Snow,250,2013-01-12 03:38:00
8:40 PM,-9.4,-13.0,84,29.80,3.0,WSW,6.9,-,0.00,Snow,Light Snow,250,2013-01-12 03:40:00
8:53 PM,-7.1,-11.9,79,30.05,4.0,West,8.1,-,0.00,Snow,Light Snow,260,2013-01-12 03:53:00
9:22 PM,-9.4,-14.8,77,29.80,10.0,West,12.7,-,0.00,,Scattered Clouds,270,2013-01-12 04:22:00
9:53 PM,-9.9,-14.1,82,30.06,10.0,West,10.4,-,0.00,,Clear,270,2013-01-12 04:53:00
10:53 PM,-11.0,-15.0,83,30.06,10.0,West,9.2,-,N/A,,Clear,270,2013-01-12 05:53:00
11:53 PM,-15.0,-18.0,86,30.07,10.0,West,6.9,-,N/A,,Clear,270,2013-01-12 06:53:00